Location: Chèvreville
(49.1099°N, 2.8495°E)
Time: 12:59:53
(UTC+00:00)

BlueWalker 3 - Pass Details

Date: 27 January 2026
Orbit: 450 x 461 km, 53.2° (Epoch: 11 February)

Event Time Altitude Azimuth Distance (km) Brightness Sun altitude
Rises 18:38:06 0° 269° (W) 2,456 7.1 -19.7°
Reaches altitude 10° 18:40:18 10° 276° (W) 1,584 5.6 -20.0°
Maximum altitude 18:43:44 45° 350° (N) 622 2.3 -20.6°
Enters shadow 18:43:53 45° 359° (N) 625 2.3 -20.6°
